Погода в Морозовске

Погода в Морозовске : погода сейчас, прогноз погоды и архив. Всё, что Вы хотите узнать о погоде в Морозовске!

Хотите узнать прогноз погоды в Морозовске? Тогда Вам сюда: Погода в Морозовске

Поиск расширенной информации на нашем сайте:

Другие новости

Новости СМИ2

Главная страница сайта

Новости сайта

03.07.2017

Напоминаем, что на нашем специализированном сайте Метеоцентр.Азия вы можете получить высокодетализированные автоматические прогнозы погоды по пунктам России, СНГ и мира в авиационном формате (включающие направление и скорость ветра, видимость, явления погоды, количество и форму облачности, нижнюю и верхнюю границу облачности).


Погода в Морозовске - сегодня

Время (UTC), дата Ветер
(°,м/с) 
Видим.   Явления Облачность Т
(°С)
Тd
(°С)
f(%) Тe
(°С)
Pmin
(гПа)
dP
(гПа)
Po
(мм)
O2
(г/м3)
Тmin Tmax R s Состояние
почвы
21 11.11.18 080 (В) 5{12}  20000 м    10/10 600 м 
[Sc]
-2.3 -8.5 62 -6  1039.4  0.4  771  314           
00 12.11.18 080 (В) 6-10{13}  20000 м    10/10 600 м 
[Sc]
-2.6 -12.7 46 -7  1039.6  0.2  771  315           
03 12.11.18 070 (В) 20000 м    4/0 верхняя 
[Ci fib]
-4 -11.9 54 -8  1040  0.3  771  316  -4        сухая 
06 12.11.18 080 (В) 7-13{13}  20000 м    10/10 600 м 
[Sc]
-5.3 -12.3 58 -10  1040.9  0.9  772  318  -5.4         
09 12.11.18 070 (В) 6-11{14}  4000 м  слаб. ливневой снег  10/10 600 м кучево-дожд. 
[Cb calv]
-5.4 -9.6 72 -10  1041.2  0.3  772  318           
12 12.11.18 070 (В) 6-11{12}  4000 м  слаб. ливневой снег  10/10 600 м кучево-дожд. 
[Cb calv]
-6 -8.1 85 -11  1041.1  -0.1  772  319           
15 12.11.18 070 (В) 2000 м  слаб. ливневой снег  10/10 600 м кучево-дожд. 
[Cb calv]
-5.8 -7.3 89 -10  1041.2  772  319    -4  0.3     
18 12.11.18 080 (В) 5-10{12}  4000 м  слаб. ливневой снег  10/10 300 м кучево-дожд. 
[Cb calv]
-5.9 -8.7 81 -10  1041.3  0.1  772  319           
21 12.11.18 080 (В) 5-10{12}  4000 м  слаб. ливневой снег  10/10 300 м кучево-дожд. 
[Cb calv]
-6.8 -8.7 86 -11  1040.7  -0.6  772  320           
00 13.11.18 060 (СВ) 5{10}  10 км  слаб. ливневой снег  10/10 300 м кучево-дожд. 
[Cb calv]
-6.7 -9.1 83 -11  1039.8  -0.9  771  319           
03 13.11.18 060 (СВ) 4000 м  слаб. ливневой снег  10/10 300 м кучево-дожд. 
[Cb calv]
-6.8 -8.5 88 -12  1039.3  -0.5  771  319  -6.9       
06 13.11.18 070 (В) 6{10}  10 км  слаб. ливневой снег  9/8 600 м кучево-дожд., средняя 
[Cb calv|Ac trans]
-5.8 -9.7 74 -10  1039.3  771  318           
12 13.11.18 080 (В) 6-11{12}  20000 м  в посл. час ливневой снег  10/8 600 м кучево-дожд., средняя 
[Cb calv|Ac und]
-2.3 -10.8 52 -6  1038.7  -0.1  770  314           
15 13.11.18 070 (В) 20000 м  {ливн. осадки}  10/5 600 м кучево-дожд., средняя 
[Cb calv|Ac und]
-2 -11.2 49 -5  1039.1  0.4  771  314    -1.7  0.3     
18 13.11.18 080 (В) 5{10}  20000 м    10/0 средняя 
[Ac und]
-2.5 -12.2 47 -6  1038.8  0.4  770  314           
21 13.11.18 080 (В) 6-10{11}  20000 м    10/0 средняя 
[Ac und]
-3.4 -12.8 48 -8  1038.1  -0.7  770  315           
00 14.11.18 080 (В) 5{10}  20000 м    10/0 средняя 
[Ac und]
-4.7 -12.2 56 -9  1037.4  -0.7  769  317           
03 14.11.18 080 (В) 20000 м    ясно 
-6.2 -11.5 66 -10  1036.2  -1.2  768  318  -6.3      неравномерный
сухой снег
100% 
06 14.11.18 090 (В) 20000 м    1/0 верхняя 
[Ci fib]
-4.6 -9.6 68 -7  1035.9  -0.3  768  316  -6.4         
09 14.11.18 080 (В) 5{10}  20000 м    ясно 
-1.7 -6.9 68 -5  1034.3  -1.5  767  312           
12 14.11.18 090 (В) 5{10}  20000 м    1/0 средняя 
[Ac trans]
+0.8 -8.2 51 -2  1032.6  -1.5  766  309           
18 14.11.18 090 (В) 20000 м    10/0 средняя 
[Ac As]
-0.9 -9 54 -3  1032.3  -0.2  766  310           
21 14.11.18 090 (В) 20000 м    10/0 средняя 
[Ac As]
-1.6 -10.5 51 -4  1031.5  -0.8  765  311           
00 15.11.18 090 (В) 5{10}  20000 м    10/0 средняя 
[Ac As]
-3.4 -10.8 57 -7  1031  -0.5  765  313           
03 15.11.18 080 (В) 20000 м    ясно 
-5.5 -11.1 65 -9  1031.1  765  315  -5.6      сухой снег
50-90% 
Время (UTC), дата Ветер
(°,м/с) 
Видим.   Явления Облачность Т
(°С)
Тd
(°С)
f(%) Тe
(°С)
Pmin
(гПа)
dP
(гПа)
Po
(мм)
O2
(г/м3)
Тmin Tmax R s Состояние
почвы

Для получения пояснительной информации подведите курсор к названию столбца.

ПОГОДА в Морозовске - архив

Всё, что Вы хотите узнать о погоде в Морозовске - удобно и подробно!

Выберите нужную дату (начиная с 1 января 2015* года) и нажмите кнопку "Найти".
Будут отображены архивные сводки погоды по пункту Морозовск, начиная с указанной даты.


Отображать данные в формате CSV (для использования в таблицах Excel)


Внимание! Наш архив погоды предназначен исключительно для личного некоммерческого использования в познавательных целях. Если Вам необходимы официальные справки о состоянии погоды (для производственных, юридических, коммерческих и т.п. целей), обращайтесь в органы Росгидромета.

*Примечание: данная дата относится к архиву по метеостанциям СССР (Россия, СНГ, Балтия).
Архив по метеостанциям Зарубежной Европы и Азии (кроме Китая) хранится 10 дней, по другим регионам земного шара (Китай, Африка, Америка, Австралия, Океания) - 1 день.

Морозовск - район местоположения метеостанции


Название, широта, долгота, высота метеостанции:
Морозовск 48.3°ш. 41.9°д. 90 м над ур. моря [Российская Федерация]

Дополнительная информация

В oтличие oт бoльшинства пoгoдных сайтoв мы публикуем пoдрoбную метеoинфoрмацию в детальнoм прoфессиoнальнoм фoрмате.

Характеристики температуры и влажнoсти вoздуха измеряются на высoте 2 м в тени вдали oт зданий и деревьев.
Скoрoсть ветра измеряется на высoте 10 м (на урoвне рoста челoвека скoрoсть ветра ниже в 1.5-2 раза). Если метеoстанция нахoдится в гoрoде или в лесу, тo скoрoсть ветра занижена на 2-4 м/с пo сравнению с oткрытым местoм. Скoрoсть ветра над акватoриями крупных рек и oзёр, а также на вершинах хoлмoв на 2-5 м/с выше, чем в oбычных услoвиях.
Атмoсфернoе давление в разных тoчках местнoсти мoжет значительнo oтличаться oт давления на метеoстанции, в зависимoсти oт услoвий рельефа (при пoдъёме на 10 м давление пoнижается примернo на 1 мм рт.ст.).